• Processing (Info)

  • MPEC 2019-V84 : 2019 VA3

    The following Minor Planet Electronic Circular may be linked-to from your own Web pages, but must not otherwise be redistributed electronically.

    A form allowing access to any MPEC is at the bottom of this page.


    Read MPEC 2019-V83 Read MPEC 2019-V85


    M.P.E.C. 2019-V84                              Issued 2019 November 6, 21:45 UT
    
         The Minor Planet Electronic Circulars contain information on unusual
             minor planets and routine data on comets.  They are published
        on behalf of Division F of the International Astronomical Union by the
              Minor Planet Center, Smithsonian Astrophysical Observatory,
                              Cambridge, MA 02138, U.S.A.
    
                 Prepared using the Tamkin Foundation Computer Network
    
                                  MPC@CFA.HARVARD.EDU
                URL https://www.minorplanetcenter.net/    ISSN 1523-6714
    
                                    2019 VA3                                 
    
    
    Observations:
         K19V03A  C2019 11 02.49559802 19 20.481+15 31 43.58         19.4 GVEV084F52
         K19V03A  C2019 11 02.50659602 19 18.674+15 33 29.52         19.5 GVEV084F52
         K19V03A* C2019 11 05.23514 02 13 45.97 +22 08 02.0          20.2 GVEV084G96
         K19V03A  C2019 11 05.24022 02 13 45.23 +22 08 41.0          20.3 GVEV084G96
         K19V03A  C2019 11 05.24531 02 13 44.52 +22 09 20.3          19.9 GVEV084G96
         K19V03A  C2019 11 05.25040 02 13 43.80 +22 09 59.8          20.5 GVEV084G96
         K19V03A  C2019 11 05.36097 02 13 28.29 +22 24 04.1          20.3 GVEV084I52
         K19V03A  C2019 11 05.36195 02 13 28.15 +22 24 11.4          20.2 GVEV084I52
         K19V03A  C2019 11 05.36292 02 13 28.01 +22 24 18.5          20.3 GVEV084I52
         K19V03A  C2019 11 05.36389 02 13 27.87 +22 24 26.2          20.4 GVEV084I52
         K19V03A  C2019 11 05.50376202 13 11.636+22 42 19.01         20.3 GVEV084F51
         K19V03A  C2019 11 05.54063502 13 06.672+22 46 51.58         18.7 GVEV084F51
         K19V03A KC2019 11 06.09095002 12 13.39 +23 53 43.9          20.5 VuEV084H21
         K19V03A KC2019 11 06.10044502 12 12.21 +23 54 53.3          20.3 VuEV084H21
         K19V03A  C2019 11 06.14683 02 12 07.86 +24 00 29.4          21.2 GVEV084I52
         K19V03A  C2019 11 06.14780 02 12 07.70 +24 00 36.7          20.7 GVEV084I52
         K19V03A  C2019 11 06.14877 02 12 07.59 +24 00 44.0          21.4 GVEV084I52
         K19V03A  C2019 11 06.14974 02 12 07.46 +24 00 50.5          20.3 GVEV084I52
    
    Observer details:
    F51 Pan-STARRS 1, Haleakala.  Observers J. Bulger, K. Chambers, T. Lowe, E. 
       Magnier, A. Schultz, M. Willman.  Measurers S. Chastel, M. Huber, Y. 
       Ramanjooloo, R. Wainscoat, R. Weryk.  1.8-m Ritchey-Chretien + CCD.
    F52 Pan-STARRS 2, Haleakala.  Observers J. Bulger, K. Chambers, T. Dukes, T. 
       Lowe, E. Magnier, A. Schultz, M. Willman.  Measurers S. Chastel, M. Huber, 
       Y. Ramanjooloo, R. Wainscoat, R. Weryk.  1.8-m Ritchey-Chretien + CCD.
    G96 Mt. Lemmon Survey.  Observer E. J. Christensen.  Measurers E. J. 
       Christensen, G. A. Farneth, D. C. Fuls, A. R. Gibbs, A. D. Grauer, H. 
       Groeller, R. A. Kowalski, S. M. Larson, G. J. Leonard, T. A. Pruyne, D. 
       Rankin, R. L. Seaman, F. C. Shelly, K. W. Wierzchos.  1.5-m reflector + 10K 
       CCD.
    H21 Astronomical Research Observatory, Westfield.  Observer R. Holmes.  
        Measurers S. Foglia, L. Buzzi, T. Linder, R. Holmes.  0.76-m f/3.0 
       astrograph + CCD.
    I52 Steward Observatory, Mt. Lemmon Station.  Observer D. Rankin.  Measurers E. 
       J. Christensen, G. A. Farneth, D. C. Fuls, A. R. Gibbs, A. D. Grauer, H. 
       Groeller, R. A. Kowalski, S. M. Larson, G. J. Leonard, T. A. Pruyne, D. 
       Rankin, R. L. Seaman, F. C. Shelly, K. W. Wierzchos.  1.0-m reflector + CCD.
    
    Orbital elements:
    2019 VA3                                                 Earth MOID = 0.0819 AU
    Epoch 2019 Apr. 27.0 TT = JDT 2458600.5                 Bell
    M 290.43333              (2000.0)            P               Q
    n   0.46475391     Peri.  317.69873     +0.98222101     +0.07802189
    a   1.6506463      Node    38.83295     +0.03557098     +0.81571524
    e   0.3848019      Incl.   15.80123     -0.18432742     +0.57316771
    P   2.12           H   24.4           G   0.15           U   7
    Residuals in seconds of arc
    191102 F52  0.0   0.1+    191105 I52  0.3+  0.2+    191106 H21  0.1-  0.1+
    191102 F52  0.1-  0.1-    191105 I52  0.2+  0.1+    191106 H21  0.1+  0.7+
    191105 G96  0.3+  0.3+    191105 I52  0.1+  0.1-    191106 I52  0.3+  0.4-
    191105 G96  0.1-  0.0     191105 I52  0.0   0.3+    191106 I52  0.2-  0.1-
    191105 G96  0.1+  0.1-    191105 F51  0.0   0.1+    191106 I52  0.1-  0.2+
    191105 G96  0.1+  0.1+    191105 F51  0.2-  0.2-    191106 I52  0.2-  0.3-
    
    Ephemeris:
    2019 VA3                 a,e,i = 1.65, 0.38, 16                  q = 1.0155
    Date    TT    R. A. (2000) Decl.     Delta      r    Elong.  Phase     V
    2019 10 07    04 19 31.8 -68 46 18   0.1299  1.0252    97.7    75.1    22.6
    ...
    2019 10 22    02 54 32.0 -27 47 31   0.08248 1.0580   137.8    39.2    20.7
    ...
    2019 10 30    02 28 01.6 +04 42 54   0.09166 1.0838   170.6     8.6    20.0
    ...
    2019 11 05    02 14 11.6 +21 37 39   0.1158  1.1063   171.6     7.5    20.5
    2019 11 06    02 12 20.4 +23 43 11   0.1207  1.1103   169.4     9.5    20.7
    2019 11 07    02 10 36.5 +25 38 10   0.1259  1.1144   167.3    11.3    20.8
    ...
    2019 11 13    02 02 35.7 +34 10 54   0.1607  1.1400   157.7    19.3    21.7
    ...
    2019 11 21    01 57 31.2 +40 27 22   0.2138  1.1770   149.3    25.3    22.6
    ...
    2019 12 06    02 02 04.9 +45 07 40   0.3284  1.2532   139.4    30.8    23.8
    
    A. U. Tomatic                (C) Copyright 2019 MPC           M.P.E.C. 2019-V84
    


    Read MPEC 2019-V83 Read MPEC 2019-V85


    MPEC number:

    Enter an MPEC number in one of the following forms:

    • 1997-B01 (the full form)
    • J97B01 (the packed version of the full form)
    • B01 (the abbreviated form)